Weather History for KARA - January, 2013

Change the Weather History Date:

Saturday, January 5, 2013

  Actual Average Record
Temperature  
Mean Temperature 50 °F 53 °F  
Max Temperature 53 °F 63 °F 80 °F (2005)
Min Temperature 46 °F 43 °F 22 °F (1969)
Degree Days  
Heating Degree Days 15 13  
Month to date heating degree days 72 65  
Since 1 July heating degree days 507 612  
Cooling Degree Days 0 1  
Month to date cooling degree days 0 5  
Year to date cooling degree days 0 5  
Moisture  
Dew Point 39 °F    
Average Humidity 68    
Maximum Humidity 86    
Minimum Humidity 50    
Precipitation  
Precipitation 0.04 in 0.20 in 3.00 in (1998)
Month to date precipitation 1.27 0.93  
Year to date precipitation 1.27 0.93  
Sea Level Pressure  
Sea Level Pressure 30.29 in    
Wind  
Wind Speed 9 mph (NNE)    
Max Wind Speed 16 mph    
Max Gust Speed 20 mph    
Visibility 9 miles    
Events Rain    
T = Trace of Precipitation, MM = Missing Value Source: NWS Daily Summary

Daily Weather History Graph

Daily Weather History Graph

Search for Another Location

Airport or City:

Trip Planner

Search our weather history database for the weather conditions in past years. The results will help you decide how hot, cold, wet, or windy it might be!

Date:

Astronomy

Jan. 05, 2013 Rise Set
Actual Time 7:04 AM CST 5:22 PM CST
Civil Twilight 6:38 AM CST 5:48 PM CST
Nautical Twilight 6:08 AM CST 6:17 PM CST
Astronomical Twilight 5:39 AM CST 6:47 PM CST
Moon 12:26 AM CST (1/5) 11:59 AM CST (1/5)
Length of Visible Light 11h 10m
Length of Day
10h 17m
Last Quarter, 44% of the Moon is Illuminated
Jan 5
Last Quarter
Jan 11
New
Jan 18
First Quarter
Jan 26
Full
Feb 3
Last Quarter

Hourly Weather History & Observations

Time (CST) Temp. Windchill Dew Point Humidity Pressure Visibility Wind Dir Wind Speed Gust Speed Precip Events Conditions
12:53 AM 48.9 °F - 34.0 °F 56% 30.31 in 10.0 mi ENE 9.2 mph - N/A   Overcast
1:53 AM 48.0 °F - 36.0 °F 63% 30.33 in 10.0 mi North 5.8 mph - N/A   Overcast
2:53 AM 46.0 °F 44.8 °F 37.9 °F 73% 30.33 in 10.0 mi North 3.5 mph - N/A   Clear
3:53 AM 46.9 °F - 37.0 °F 68% 30.36 in 10.0 mi NNW 5.8 mph - N/A   Overcast
4:53 AM 48.9 °F - 35.1 °F 59% 30.33 in 10.0 mi NNE 5.8 mph - N/A   Overcast
5:53 AM 48.0 °F - 36.0 °F 63% 30.32 in 10.0 mi NNE 10.4 mph - 0.00 in   Mostly Cloudy
6:53 AM 46.9 °F - 36.0 °F 66% 30.34 in 10.0 mi North 8.1 mph - 0.00 in   Mostly Cloudy
7:53 AM 48.0 °F - 35.1 °F 61% 30.36 in 10.0 mi NNE 10.4 mph - N/A   Mostly Cloudy
8:53 AM 48.9 °F - 35.1 °F 59% 30.36 in 10.0 mi NNE 10.4 mph - N/A   Mostly Cloudy
9:53 AM 51.1 °F - 35.1 °F 54% 30.35 in 10.0 mi NE 10.4 mph - N/A   Overcast
10:53 AM 52.0 °F - 35.1 °F 53% 30.33 in 10.0 mi NNE 8.1 mph - N/A   Overcast
11:53 AM 53.1 °F - 36.0 °F 52% 30.33 in 10.0 mi NNE 6.9 mph - N/A   Overcast
12:24 PM 53.6 °F - 35.6 °F 51% 30.29 in 10.0 mi NNE 11.5 mph - N/A   Overcast
12:53 PM 53.1 °F - 36.0 °F 52% 30.28 in 10.0 mi NNE 10.4 mph - N/A   Overcast
1:53 PM 52.0 °F - 36.0 °F 54% 30.26 in 10.0 mi North 12.7 mph - N/A   Overcast
2:53 PM 51.1 °F - 37.9 °F 61% 30.27 in 9.0 mi NNE 10.4 mph - 0.00 in Rain Light Rain
3:41 PM 48.2 °F - 39.2 °F 71% 30.25 in 3.0 mi NE 9.2 mph - 0.03 in Rain Rain
3:53 PM 48.9 °F - 41.0 °F 74% 30.25 in 10.0 mi NE 11.5 mph - 0.03 in Rain Light Rain
4:53 PM 48.9 °F - 41.0 °F 74% 30.25 in 10.0 mi NNE 8.1 mph - N/A   Overcast
5:53 PM 48.0 °F - 43.0 °F 83% 30.25 in 7.0 mi NE 8.1 mph - 0.00 in Rain Light Rain
6:53 PM 48.0 °F - 43.0 °F 83% 30.25 in 7.0 mi NNE 10.4 mph - 0.00 in Rain Light Rain
7:53 PM 48.0 °F - 44.1 °F 86% 30.25 in 6.0 mi NNE 9.2 mph - 0.00 in Rain Light Rain
8:03 PM 48.2 °F - 44.6 °F 87% 30.26 in 8.0 mi North 9.2 mph - 0.00 in   Overcast
8:53 PM 48.0 °F - 44.1 °F 86% 30.24 in 9.0 mi NE 10.4 mph - 0.00 in   Overcast
9:53 PM 48.0 °F - 44.1 °F 86% 30.25 in 10.0 mi NNE 6.9 mph - N/A   Overcast
10:53 PM 48.0 °F - 44.1 °F 86% 30.24 in 10.0 mi NNE 6.9 mph - N/A   Overcast
11:53 PM 48.0 °F - 44.1 °F 86% 30.23 in 5.0 mi North 6.9 mph - 0.01 in   Overcast